Find Starlink 31592

NORAD ID: 59467 Int'l Des: 2024-068 Owner: SPXS Country: US Constellation: starlink operational
LEOCIRCULAR

Live Position

Loading 3D Globe...

About Starlink 31592

Description loading...

Upcoming Passes

Passes for default location (London). Set your location on the main map for personalized predictions.

Altitude History

Loading altitude history...

Two-Line Element Set

1 59467U 24068N 26124.55568193 .00000560 00000-0 29885-4 0 9995
2 59467 43.0013 79.2821 0001822 279.7609 80.3037 15.27565122117068
Epoch: May 4, 2026 • Age: 9 hours

Current Status

Altitude 493.3 km
Velocity 7.62 km/s
Sub-Earth Point -38.55°S, 179.14°E
Launch Date Apr 10, 2024
Age 2 years
Type internet

Technical Details

Classification Payload
Mass 730.00 kg
Dry Mass 700.00 kg
Total Mass 730.00 kg
Length 0.30 m
Diameter 4.10 m
Span 29.00 m
Shape Box + pan
Manufacturer SPXS
Bus Type Starlink V2M
Phase Status In Orbit
Owner/State SPXS/US

Most Searched